Home   Weather   Birmingham   Past weeks
Flag for United Kingdom

Past Weather in Birmingham, England, United Kingdom — Yesterday and Last 2 Weeks

Now
45 °F

Passing clouds.


Feels Like: 40 °F
Forecast: N/A
Wind: 9 mph from South

Location: Birmingham / Airport

Current Time: Dec 19, 2018 at 3:50:24 pm

Latest Report: Dec 19, 2018 at 3:20 pm


Visibility: N/A

Pressure: 29.59 "Hg

Humidity: 87%

Dew Point: 41 °F

Location of BirminghamLocation

Past Weather in Birmingham — Graph

°F

Birmingham Temperature Yesterday

Maximum temperature yesterday: 50 °F (at 12:50 am)
Minimum temperature yesterday: 37 °F (at 11:50 pm)
Average temperature yesterday: 47 °F

High & Low Weather Summary for the Past Weeks

 TemperatureHumidityPressure
High55 °F (Dec 6, 7:20 pm)100% (Dec 4, 5:20 pm)30.36 "Hg (Dec 4, 5:20 pm)
Low27 °F (Dec 14, 8:50 pm)57% (Dec 7, 2:20 pm)29.39 "Hg (Dec 8, 3:20 pm)
Average43 °F89%29.88 "Hg
* Reported Dec 4 2:20 pm — Dec 19 2:20 pm, Birmingham. Weather by CustomWeather, © 2018

Note: Actual official high and low records may vary slightly from our data, if they occured in-between our weather recording intervals... More about our weather records

Advertising

Birmingham Weather History for the Previous 24 Hours

Scroll right to see more
 ConditionsComfort  
Time TempWeatherWind HumidityBarometerVisibility
2:20 pm
Wed, Dec 19
46 °FPassing clouds.9 mph82%29.59 "HgN/A
1:50 pm46 °FScattered clouds.9 mph87%29.59 "HgN/A
1:20 pm46 °FScattered clouds.9 mph87%29.59 "HgN/A
12:50 pm46 °FPassing clouds.8 mph87%29.59 "HgN/A
12:20 pm46 °FPassing clouds.7 mph87%29.62 "HgN/A
11:50 am46 °FPassing clouds.7 mph87%29.62 "HgN/A
11:20 am46 °FPassing clouds.6 mph87%29.62 "HgN/A
10:50 am45 °FPassing clouds.7 mph93%29.62 "HgN/A
10:20 am45 °FPassing clouds.9 mph93%29.62 "HgN/A
9:50 am43 °FPassing clouds.7 mph100%29.62 "HgN/A
9:20 am43 °FPassing clouds.5 mph100%29.62 "HgN/A
8:50 am43 °FPassing clouds.7 mph100%29.59 "Hg5 mi
8:20 am41 °FSunny.3 mph100%29.59 "Hg10 mi
7:50 am43 °FPassing clouds.3 mph100%29.56 "HgN/A
7:20 am43 °FLight rain. Passing clouds.3 mph100%29.56 "HgN/A
6:50 am43 °FPassing clouds.6 mph100%29.56 "Hg4 mi
6:20 am43 °FPassing clouds.6 mph100%29.56 "HgN/A
5:50 am41 °FPassing clouds.6 mph100%29.56 "Hg5 mi
5:20 am41 °FPartly cloudy.6 mph100%29.56 "Hg4 mi
4:50 am41 °FFog.6 mph100%29.56 "Hg2 mi
4:20 am39 °FFog.5 mph100%29.56 "Hg1 mi
3:50 am39 °FFog.5 mph100%29.56 "Hg1 mi
3:20 am39 °FFog.6 mph100%29.56 "Hg3 mi
2:50 am39 °FPassing clouds.6 mph100%29.56 "HgN/A
2:20 am39 °FPassing clouds.6 mph100%29.56 "HgN/A
1:50 am39 °FPassing clouds.6 mph100%29.56 "HgN/A
1:20 am39 °FPassing clouds.5 mph100%29.56 "HgN/A
12:50 am41 °FClear.6 mph100%29.56 "Hg10 mi
12:20 am39 °FPassing clouds.5 mph100%29.56 "HgN/A
11:50 pm
Tue, Dec 18
37 °FClear.5 mph100%29.56 "Hg10 mi
11:20 pm39 °FPassing clouds.6 mph100%29.56 "HgN/A
10:50 pm41 °FFog.6 mph100%29.56 "Hg2 mi
10:20 pm41 °FLight rain. Partly cloudy.6 mph100%29.56 "Hg5 mi
9:50 pm43 °FPassing clouds.5 mph100%29.53 "HgN/A
9:20 pm43 °FLight rain. Passing clouds.3 mph100%29.53 "Hg5 mi
8:20 pm43 °FLight rain. Passing clouds.5 mph100%29.53 "Hg6 mi
7:50 pm43 °FLight rain. Overcast.1 mph100%29.53 "Hg4 mi
7:20 pm45 °FLight rain. Passing clouds.3 mph93%29.53 "Hg5 mi
6:50 pm43 °FLight rain. Passing clouds.2 mph100%29.53 "Hg5 mi
6:20 pm45 °FRain. Partly cloudy.5 mph93%29.53 "Hg4 mi
5:50 pm46 °FRain. Passing clouds.8 mph93%29.53 "Hg3 mi
5:20 pm46 °FLight rain. Passing clouds.12 mph93%29.53 "Hg4 mi
4:50 pm46 °FLight rain. Passing clouds.16 mph93%29.53 "Hg4 mi
4:20 pm46 °FLight rain. Passing clouds.16 mph93%29.53 "Hg4 mi
3:50 pm46 °FLight rain. Partly sunny.16 mph93%29.53 "Hg4 mi
3:20 pm46 °FLight rain. Partly sunny.18 mph93%29.56 "Hg4 mi
Weather by CustomWeather, © 2018

See weather overview